COSMOS 1275 DEB, 17792

Orbit data source: Space-Track

COSMOS 1275 DEB, 17792 is space debris in LEO originally from a launch on Thu, 04 Jun 1981 UTC launched from the Plesetsk Missile And Space Complex (PKMTR). Debris objects in space refer to the collection of defunct objects orbiting the Earth. Examples of debris include non-operational satellites, rocket bodies, and fragments generated from explosions, collisions, or faulty payload assembly.

Loading next visibility...
Identifier
17792, 1981-053LN
Orbit
LEO
Country
Flag of CISCIS
Related business
Manufacturer
Unknown
Mission
Spacecraft
Bus & Motor
Unknown
Mass
Unknown
Launch date (UTC)
1981-06-04 (45 years ago)
Launch vehicle
Unknown
Launch site
Plesetsk Missile And Space Complex (PKMTR)
Object type
Payload
Rocket body
Debris
Shape & HBR
Unknown shape, 0.1 m
Radar Cross Section
Medium (>0.1 m² and <1 m²)

Expand to show TLE details & history
Last TLE update: 2 days ago

TLE from 2 days ago
0 COSMOS 1275 DEB
1 17792U 81053LN  26171.36548530  .00001177  00000-0  61697-3 0  9992
2 17792  82.9524 248.6754 0012714 201.7117 286.8990 14.13467384 97085
Epoch: 2026-06-20T08:46Z
TLE epoch observation values (Epoch: 2026-06-20T08:46:17.929Z)
Latitude
51.08632°
Longitude
19.75751°
Altitude
853.091 km
Speed
7.432 km/s
True Right ascension
03h 59m 39s
True Declination
50° 55' 13"
Sunlit
Object was in daylight at epoch
Visualization orbit readout
Latitude
Unknown
Longitude
Unknown
Altitude
Unknown
Speed
Unknown
Apparent Right ascension
Unknown
Apparent Declination
Unknown
Sunlit
N/A
Visualization observer readout
Local Sidereal Time
23:20:07
Azimuth
Unknown
Elevation
Unknown
Doppler factor
Unknown
Orbital elements
Apogee altitude
853.809 km
Perigee altitude
835.443 km
Semi-major axis
7,222.763 km
Eccentricity
0.00127
Inclination
82.9524°
RAAN
248.6754°
Arg. of periapsis
201.7117°
True anomaly
286.75954°
Mean anomaly
286.899°
Eccentric anomaly
286.82927°
Mean motion
3.5358 °/min
Orbital period
101.82 mins
BSTAR
0.00061697
Loading maneuver chart data...
Computing Atmospheric mass density...

Documentation

Showing up to 5 results
|